Location: Washington
(38.8950°N, 77.0370°W)
Time: 01:31:10
(UTC-04:00)

ISS - All Passes

Search period start: 31 July 2016 00:00
Search period end: 10 August 2016 00:00
Orbit: 401 x 404 km, 51.6° (Epoch: 30 July)

Date Brightness Start Highest point End Pass type
(mag) Time Alt. Az. Time Alt. Az. Time Alt. Az.
31 Jul - 02:03:14 10° NNW 02:06:04 26° NNE 02:08:53 10° E night (unlit)
31 Jul - 03:39:33 10° WNW 03:42:32 34° SW 03:45:30 10° SSE night (unlit)
31 Jul - 18:43:13 10° SSE 18:44:46 13° SE 18:46:20 10° E daylight
31 Jul - 20:17:38 10° WSW 20:20:50 59° NW 20:24:04 10° NE daylight
31 Jul - 21:56:05 10° NW 21:57:49 14° NNW 21:59:33 10° NNE visible
01 Aug - 01:10:37 10° NNW 01:12:56 18° NNE 01:15:15 10° ENE visible
01 Aug - 02:46:25 10° NW 02:49:41 74° SW 02:52:54 10° SE night (unlit)
01 Aug - 19:24:40 10° SW 19:27:54 67° SE 19:31:08 10° NE daylight
01 Aug - 21:02:13 10° WNW 21:04:37 19° NNW 21:07:00 10° NNE visible
02 Aug - 00:18:05 10° NNW 00:19:43 13° NNE 00:21:22 10° NE visible
02 Aug - 01:53:31 10° NW 01:56:43 54° NE 01:59:55 10° ESE night (unlit)
02 Aug - 03:31:01 10° W 03:32:50 14° SW 03:34:37 10° SSW night (unlit)
02 Aug - 18:32:08 10° SSW 18:35:03 31° SE 18:37:59 10° ENE daylight
02 Aug - 20:08:36 10° W 20:11:29 28° NNW 20:14:21 10° NNE daylight
02 Aug - 21:48:22 10° NNW 21:48:46 10° N 21:49:10 10° N visible
02 Aug - 23:25:46 10° N 23:26:26 10° N 23:27:06 10° NNE visible
03 Aug - 01:00:46 10° NW 01:03:41 30° NNE 01:06:37 10° E visible
03 Aug - 02:37:14 10° WNW 02:40:04 28° SW 02:42:54 10° SSE night (unlit)
03 Aug - 17:40:15 10° S 17:42:17 16° SE 17:44:19 10° E daylight
03 Aug - 19:15:15 10° WSW 19:18:25 49° NW 19:21:36 10° NE daylight
03 Aug - 20:53:58 10° NW 20:55:28 13° NNW 20:57:00 10° NNE visible
04 Aug - 00:08:06 10° NNW 00:10:34 20° NNE 00:13:02 10° ENE visible
04 Aug - 01:44:01 10° WNW 01:47:13 59° SW 01:50:26 10° SE night (unlit)
04 Aug - 18:22:13 10° SW 18:25:27 82° SE 18:28:44 10° NE daylight
04 Aug - 20:00:01 10° WNW 20:02:14 17° NNW 20:04:28 10° NNE daylight
04 Aug - 23:15:31 10° NNW 23:17:22 14° NNE 23:19:13 10° NE visible
05 Aug - 00:51:03 10° NW 00:54:18 66° NE 00:57:31 10° ESE visible
05 Aug - 02:29:09 10° WSW 02:30:19 12° SW 02:31:30 10° SSW night (unlit)
05 Aug - 17:29:32 10° SSW 17:32:34 38° SE 17:35:38 10° ENE daylight
05 Aug - 19:06:19 10° W 19:09:05 25° NNW 19:11:51 10° NNE daylight
05 Aug - 22:23:05 10° N 22:24:05 11° NNE 22:25:05 10° NNE visible
05 Aug - 23:58:15 10° NW 00:01:17 35° NNE 00:04:18 10° E visible
06 Aug - 01:34:56 10° WNW 01:37:35 23° SW 01:40:13 10° S night (unlit)
06 Aug - 16:37:24 10° S 16:39:46 19° SE 16:42:10 10° E daylight
06 Aug - 18:12:53 10° WSW 18:16:00 41° NNW 18:19:07 10° NE daylight
06 Aug - 19:51:50 10° NW 19:53:07 12° NNW 19:54:24 10° N daylight
06 Aug - 23:05:33 10° NNW 23:08:10 22° NNE 23:10:47 10° E visible
07 Aug - 00:41:36 10° WNW 00:44:46 47° SW 00:47:53 10° SSE night (unlit)
07 Aug - 17:19:44 10° SW 17:23:00 81° NW 17:26:15 10° NE daylight
07 Aug - 18:57:48 10° WNW 18:59:51 15° NNW 19:01:54 10° NNE daylight
07 Aug - 22:12:56 10° NNW 22:14:58 15° NNE 22:17:01 10° ENE visible
07 Aug - 23:48:35 10° NW 23:51:50 80° NE 23:55:05 10° SE visible
08 Aug - 16:26:57 10° SSW 16:30:05 47° SE 16:33:14 10° ENE daylight
08 Aug - 18:04:02 10° W 18:06:39 22° NNW 18:09:18 10° NNE daylight
08 Aug - 21:20:27 10° N 21:21:43 12° NNE 21:22:58 10° NE visible
08 Aug - 22:55:43 10° NW 22:58:50 40° NNE 23:01:56 10° ESE visible
09 Aug - 00:32:40 10° W 00:35:04 19° SW 00:37:27 10° S night (unlit)
09 Aug - 15:34:37 10° S 15:37:15 23° SE 15:39:53 10° ENE daylight
09 Aug - 17:10:31 10° W 17:13:33 35° NNW 17:16:35 10° NE daylight
09 Aug - 18:49:43 10° NNW 18:50:44 11° NNW 18:51:45 10° N daylight
09 Aug - 22:02:59 10° NNW 22:05:45 24° NNE 22:08:29 10° E visible
09 Aug - 23:39:11 10° WNW 23:42:15 38° SW 23:45:18 10° SSE visible
